AirNav   Air Wisconsin Up To $57,000 Bonus
 
 1175 users online  

MY57 Fedor Airport
Holdingford, Minnesota, USA

GOING TO HOLDINGFORD?


FAA INFORMATION EFFECTIVE 01 DECEMBER 2022

Location

FAA Identifier: MY57
Lat/Long: 45-45-47.8740N 094-27-27.0120W
45-45.797900N 094-27.450200W
45.7632983,-94.4575033
(estimated)
Elevation: 1175 ft. / 358 m (estimated)
Variation: 04E (1985)
From city: 2 miles N of HOLDINGFORD, MN
Time zone: UTC -6 (UTC -5 during Daylight Saving Time)
Zip code: 56340

Airport Operations

Airport use: Private use. Permission required prior to landing
Activation date: 07/1983
Control tower: no
ARTCC: MINNEAPOLIS CENTER
FSS: PRINCETON FLIGHT SERVICE STATION
Attendance: UNATNDD
Wind indicator: yes
Segmented circle: no

Airport Communications

WX AWOS-3 at LXL (12 nm N): 119.450 (320-632-6791)
WX AWOS-3 at 14Y (19 nm NW): 118.650 (320-732-3508)

Nearby radio navigation aids

VOR radial/distance  VOR name  Freq  Var
STCr305/21.1ST CLOUD VOR/DME112.1003E
AXNr103/34.4ALEXANDRIA VOR/DME115.9507E

 
NDB name  Hdg/Dist  Freq  Var  ID
RIPLEY191/19.540403EXCR -..- -.-. .-.

Airport Services

Runway Information

Runway N/S

Dimensions: 1830 x 65 ft. / 558 x 20 m
Surface: turf, in good condition
RUNWAY N  RUNWAY S
Traffic pattern: leftright
Obstructions: 35 ft. treesnone

Airport Ownership and Management from official FAA records

Ownership: Privately-owned
Owner: ALLEN L FEDOR
16893 440 ST
HOLDINGFORD, MN 56340
Phone 320-746-2395
Manager: ALLEN L FEDOR
16893 440 ST
HOLDINGFORD, MN 56340
Phone (320) 746-2762

Airport Operational Statistics

Aircraft based on the field: 1
Single engine airplanes: 1
    

Additional Remarks

DO NOT CHART PER MINNESOTA DEPARTMENT OF TRANSPORTATION
FOR CD CTC MINNEAPOLIS ARTCC AT 651-463-5588.

Instrument Procedures

There are no published instrument procedures at MY57.

Some nearby airports with instrument procedures:

KLXL - Little Falls/Morrison County Airport-Lindbergh Field (12 nm N)
14Y - Todd Field Airport (19 nm NW)
KRYM - Ray S Miller Army Airfield (20 nm N)
D39 - Sauk Centre Municipal Airport (20 nm W)
KSTC - St Cloud Regional Airport (21 nm SE)
 
Loc | Ops | Rwys | IFR | FBO | Links
Com | Nav | Svcs | Stats | Notes
Area around MY57 (Fedor Airport)
 
Road maps at: MapQuest Bing Google
 
Aerial photo
WARNING: Photo may not be current or correct
Aerial photo of MY57 (Fedor Airport)
Photo by Michael Wentland
Photo taken 08-Jun-2017
looking south.

Do you have a better or more recent aerial photo of Fedor Airport that you would like to share? If so, please send us your photo.

 
Sectional chart

 
Airport distance calculator
Flying to Fedor Airport? Find the distance to fly.

From to MY57

Sunrise and sunset
Times for 03-Dec-2022
 Local
(UTC-6)
 Zulu
(UTC)
Morning civil twilight07:0813:08
Sunrise07:4213:42
Sunset16:3422:34
Evening civil twilight17:0723:07

Current date and time
Zulu (UTC)  04-Dec-2022 02:20:48
Local (UTC-6)  03-Dec-2022 20:20:48
 
METAR
KLXL 
12nm NE 
040155Z AUTO 11003KT 10SM M13/M17 RMK AO2
K14Y 
19nm NW 
118.65 320-732-3508
040155Z AUTO 15003KT 10SM CLR M15/M17 A3017 RMK AO2
KRYM 
20nm N 
040155Z AUTO 00000KT 10SM CLR M16/M19 A3018 RMK AO2 SLP256 T11601195 $
KD39 
20nm W 
040155Z AUTO 14006KT 10SM CLR M14/M16 A3017 RMK AO2 T11391164
KSTC 
21nm SE 
040153Z 13004KT 10SM CLR M12/M16 A3022 RMK AO2 SLP268 T11221156 $
TAF
KSTC 
21nm SE 
032100Z 0321/0418 22011KT P6SM SKC FM040000 19006KT P6SM SKC FM040800 25007KT P6SM SKC
NOTAMs
Click for the latest NOTAMs
NOTAMs are issued by the DoD/FAA and will open in a separate window not controlled by AirNav.

 

 
 

Would you like to see your business listed on this page?

 If your business provides an interesting product or service to pilots, flight crews, aircraft, or users of the Fedor Airport, you should consider listing it here.  To start the listing process, click on the button below
 
Add a business
 

Other Pages about Fedor Airport

Update a link
 
Copyright © AirNav, LLC. All rights reserved. Privacy Policy  Contact